When you browse on this site, cookies collect data to enhance your experience and personalize the content and advertising you see.
Visit our Privacy Policy to learn more. By continuing to use the site, you agree to this use of cookies and data.
EN

Hourly Weather Franceville

Today, 11 July, Saturday

Time Temperature Precipitation Wind Pressure Humidity
00:00 +25°C° 0 mm 1 mps 732 mmHg 84%
01:00 +25°C° 0 mm 1 mps 732 mmHg 84%
02:00 +24°C° 0 mm 1 mps 731 mmHg 87%
03:00 +24°C° 0 mm 1 mps 731 mmHg 89%
04:00 +24°C° 0 mm 1 mps 731 mmHg 91%
05:00 +24°C° 0 mm 1 mps 731 mmHg 90%
06:00 +24°C° 0 mm 1 mps 731 mmHg 89%
07:00 +24°C° 0 mm 2 mps 732 mmHg 89%
08:00 +25°C° 0 mm 2 mps 732 mmHg 83%
09:00 +26°C° 0 mm 2 mps 732 mmHg 78%
10:00 +27°C° 0 mm 2 mps 733 mmHg 72%
11:00 +29°C° 0 mm 1 mps 732 mmHg 66%
12:00 +30°C° 0 mm 1 mps 732 mmHg 61%
13:00 +31°C° 0 mm 1 mps 731 mmHg 56%
14:00 +31°C° 0 mm 1 mps 731 mmHg 56%
15:00 +31°C° 0 mm 1 mps 730 mmHg 56%
16:00 +31°C° 0 mm 1 mps 730 mmHg 57%
17:00 +30°C° 0 mm 1 mps 730 mmHg 63%
18:00 +29°C° 0 mm 1 mps 730 mmHg 69%
19:00 +25°C° 0 mm 0 mps 730 mmHg 75%
20:00 +27°C° 0.1 mm 1 mps 731 mmHg 78%
21:00 +26°C° 0.1 mm 1 mps 731 mmHg 81%
22:00 +26°C° 0.1 mm 1 mps 732 mmHg 83%
23:00 +25°C° 0.2 mm 1 mps 732 mmHg 85%

Tomorrow, 12 July, Sunday

Time Temperature Precipitation Wind Pressure Humidity
00:00 +23°C° 0.2 mm 0 mps 731 mmHg 87%
01:00 +23°C° 0.2 mm 0 mps 731 mmHg 89%
02:00 +22°C° 0 mm 0 mps 731 mmHg 89%
03:00 +22°C° 0 mm 0 mps 731 mmHg 90%
04:00 +22°C° 0 mm 0 mps 731 mmHg 90%
05:00 +22°C° 0 mm 0 mps 731 mmHg 90%
06:00 +22°C° 0 mm 0 mps 732 mmHg 89%
07:00 +22°C° 0 mm 0 mps 732 mmHg 89%
08:00 +24°C° 0 mm 0 mps 733 mmHg 81%
09:00 +28°C° 0 mm 1 mps 733 mmHg 73%
10:00 +29°C° 0 mm 1 mps 734 mmHg 65%
11:00 +30°C° 0 mm 1 mps 733 mmHg 63%
12:00 +31°C° 0 mm 1 mps 732 mmHg 61%
13:00 +31°C° 0 mm 2 mps 732 mmHg 59%
14:00 +31°C° 0.3 mm 2 mps 731 mmHg 60%
15:00 +31°C° 0.3 mm 1 mps 731 mmHg 62%
16:00 +31°C° 0.3 mm 1 mps 730 mmHg 63%
17:00 +29°C° 0.4 mm 1 mps 730 mmHg 69%
18:00 +28°C° 0.4 mm 1 mps 731 mmHg 75%
19:00 +27°C° 0.4 mm 1 mps 731 mmHg 81%
20:00 +26°C° 0.1 mm 1 mps 732 mmHg 82%
21:00 +26°C° 0.1 mm 1 mps 732 mmHg 82%
22:00 +25°C° 0.1 mm 1 mps 732 mmHg 83%
23:00 +25°C° 0 mm 1 mps 732 mmHg 85%

Day after tomorrow, 13 July, Monday

Time Temperature Precipitation Wind Pressure Humidity
00:00 +24°C° 0 mm 1 mps 732 mmHg 86%
01:00 +24°C° 0 mm 1 mps 732 mmHg 88%
02:00 +24°C° 0.1 mm 1 mps 732 mmHg 89%
03:00 +23°C° 0.1 mm 1 mps 731 mmHg 90%
04:00 +21°C° 0.1 mm 0 mps 731 mmHg 91%
05:00 +21°C° 0 mm 0 mps 731 mmHg 91%
06:00 +21°C° 0 mm 0 mps 732 mmHg 90%
07:00 +23°C° 0 mm 1 mps 732 mmHg 90%
08:00 +25°C° 0 mm 1 mps 732 mmHg 84%
09:00 +26°C° 0 mm 1 mps 733 mmHg 77%
10:00 +28°C° 0 mm 1 mps 733 mmHg 71%
11:00 +29°C° 0 mm 1 mps 732 mmHg 66%
12:00 +30°C° 0 mm 1 mps 732 mmHg 61%
13:00 +31°C° 0 mm 1 mps 731 mmHg 56%
14:00 +31°C° 0 mm 2 mps 730 mmHg 57%
15:00 +31°C° 0 mm 2 mps 730 mmHg 57%
16:00 +31°C° 0 mm 2 mps 729 mmHg 58%
17:00 +29°C° 0 mm 2 mps 729 mmHg 63%
18:00 +28°C° 0 mm 2 mps 730 mmHg 68%
19:00 +27°C° 0 mm 2 mps 730 mmHg 72%
20:00 +26°C° 0 mm 2 mps 730 mmHg 74%
21:00 +25°C° 0 mm 2 mps 731 mmHg 76%
22:00 +25°C° 0 mm 1 mps 731 mmHg 77%
23:00 +25°C° 0 mm 1 mps 732 mmHg 77%

14 July, Tuesday

Time Temperature Precipitation Wind Pressure Humidity
00:00 +24°C° 0 mm 1 mps 732 mmHg 77%
01:00 +24°C° 0 mm 1 mps 732 mmHg 76%
02:00 +24°C° 0 mm 1 mps 731 mmHg 79%
03:00 +23°C° 0 mm 1 mps 731 mmHg 81%
04:00 +23°C° 0 mm 1 mps 731 mmHg 83%
05:00 +21°C° 0 mm 0 mps 731 mmHg 84%
06:00 +21°C° 0 mm 0 mps 731 mmHg 84%
07:00 +21°C° 0 mm 0 mps 732 mmHg 84%
08:00 +23°C° 0 mm 0 mps 732 mmHg 75%
09:00 +26°C° 0 mm 0 mps 732 mmHg 66%
10:00 +28°C° 0 mm 0 mps 733 mmHg 57%
11:00 +30°C° 0 mm 1 mps 732 mmHg 56%
12:00 +31°C° 0 mm 1 mps 732 mmHg 55%
13:00 +31°C° 0 mm 2 mps 731 mmHg 54%
14:00 +31°C° 0 mm 2 mps 730 mmHg 54%
15:00 +31°C° 0 mm 1 mps 730 mmHg 55%
16:00 +31°C° 0 mm 1 mps 729 mmHg 56%
17:00 +29°C° 0.1 mm 1 mps 729 mmHg 63%
18:00 +28°C° 0.1 mm 1 mps 730 mmHg 71%
19:00 +26°C° 0.1 mm 1 mps 730 mmHg 79%
20:00 +26°C° 0.1 mm 1 mps 731 mmHg 81%
21:00 +23°C° 0.1 mm 0 mps 731 mmHg 83%
22:00 +23°C° 0.1 mm 0 mps 732 mmHg 84%
23:00 +23°C° 0.1 mm 0 mps 732 mmHg 83%

15 July, Wednesday

Time Temperature Precipitation Wind Pressure Humidity
00:00 +25°C° 0.1 mm 1 mps 732 mmHg 82%
01:00 +24°C° 0.1 mm 1 mps 732 mmHg 81%
02:00 +24°C° 0 mm 1 mps 731 mmHg 82%
03:00 +24°C° 0 mm 1 mps 731 mmHg 83%
04:00 +23°C° 0 mm 1 mps 731 mmHg 85%
05:00 +21°C° 0 mm 0 mps 731 mmHg 85%
06:00 +21°C° 0 mm 0 mps 731 mmHg 85%
07:00 +21°C° 0 mm 0 mps 732 mmHg 85%
08:00 +24°C° 0 mm 0 mps 732 mmHg 75%
09:00 +26°C° 0 mm 0 mps 733 mmHg 65%
10:00 +30°C° 0 mm 1 mps 733 mmHg 55%
11:00 +32°C° 0 mm 1 mps 732 mmHg 52%
12:00 +33°C° 0 mm 1 mps 732 mmHg 48%
13:00 +34°C° 0 mm 1 mps 731 mmHg 45%
14:00 +33°C° 0 mm 1 mps 731 mmHg 46%
15:00 +34°C° 0 mm 2 mps 730 mmHg 48%
16:00 +32°C° 0 mm 2 mps 729 mmHg 50%
17:00 +30°C° 0.5 mm 1 mps 730 mmHg 59%
18:00 +29°C° 0.5 mm 1 mps 730 mmHg 69%
19:00 +27°C° 0.5 mm 1 mps 730 mmHg 78%
20:00 +26°C° 0.4 mm 1 mps 731 mmHg 80%
21:00 +26°C° 0.4 mm 1 mps 732 mmHg 82%
22:00 +25°C° 0.4 mm 1 mps 732 mmHg 84%
23:00 +25°C° 0.2 mm 1 mps 732 mmHg 86%

16 July, Thursday

Time Temperature Precipitation Wind Pressure Humidity
00:00 +25°C° 0.2 mm 1 mps 732 mmHg 87%
01:00 +22°C° 0.2 mm 0 mps 732 mmHg 89%
02:00 +22°C° 0 mm 0 mps 732 mmHg 90%
03:00 +22°C° 0 mm 0 mps 732 mmHg 91%
04:00 +22°C° 0 mm 0 mps 732 mmHg 92%
05:00 +22°C° 0 mm 0 mps 732 mmHg 91%
06:00 +22°C° 0 mm 0 mps 732 mmHg 91%
07:00 +22°C° 0 mm 0 mps 733 mmHg 91%
08:00 +26°C° 0 mm 1 mps 733 mmHg 82%
09:00 +27°C° 0 mm 1 mps 733 mmHg 73%
10:00 +29°C° 0 mm 1 mps 734 mmHg 64%
11:00 +30°C° 0.4 mm 1 mps 733 mmHg 63%
12:00 +31°C° 0.4 mm 1 mps 732 mmHg 61%
13:00 +31°C° 0.4 mm 1 mps 732 mmHg 59%
14:00 +31°C° 1.5 mm 1 mps 731 mmHg 63%
15:00 +30°C° 1.5 mm 1 mps 731 mmHg 68%
16:00 +29°C° 1.5 mm 1 mps 730 mmHg 72%
17:00 +28°C° 1.7 mm 1 mps 731 mmHg 77%
18:00 +27°C° 1.7 mm 1 mps 731 mmHg 82%
19:00 +26°C° 1.7 mm 1 mps 732 mmHg 88%
20:00 +25°C° 1 mm 1 mps 732 mmHg 89%
21:00 +25°C° 1 mm 1 mps 733 mmHg 90%
22:00 +25°C° 1 mm 1 mps 733 mmHg 92%
23:00 +24°C° 1.1 mm 1 mps 733 mmHg 92%
Show more